Flag for Germany Weather past 2 weeks in Emmendingen, Baden-Württemberg, Germany

Now
73 °F

Broken clouds.


Feels Like: 76 °F
Forecast: 61 / 88 °F
Wind: 10 mph from South

Location: Lahr - CAN-AFB

Current Time: Aug 4, 2015 at 4:13:44 PM

Latest Report: Aug 4, 2015 at 3:50 PM


Visibility: N/A

Pressure: 30.04 "Hg

Humidity: 69%

Dew point: 63 °F

Location of EmmendingenLocation

Historic Weather in Emmendingen — Graph

°F

Emmendingen temperature yesterday

Maximum temperature yesterday: 93 °F (at 7:20 PM)
Minimum temperature yesterday: 68 °F (at 7:50 AM)
Average temperature yesterday: 84 °F

Past Weeks' High & Low Weather Summary

 TemperatureHumidityPressure
High93 °F (Aug 3, 7:20 PM)94% (Jul 29, 1:50 PM)30.09 "Hg (Jul 29, 1:50 PM)
Low50 °F (Jul 31, 7:20 AM)26% (Aug 3, 6:20 PM)29.68 "Hg (Jul 24, 5:50 PM)
Average74 °F51%29.94 "Hg
* Reported Jul 20 2:20 PM — Aug 4 2:50 PM, Emmendingen, Weather by CustomWeather, © 2015

Note: Actual official high and low records may vary slightly from our data, if they occured in-between our weather recording intervals... More about our weather records

Advertising

Emmendingen weather history for previous 24 hours

 ConditionsComfort  
Time TempWeatherWind HumidityBarometerVisibility
2:50 PM
Tue, Aug 4
70 °FScattered clouds.14 mph83%30.04 "HgN/A
2:20 PM70 °FBroken clouds.12 mph83%30.04 "HgN/A
1:50 PM70 °FLight rain. Broken clouds.8 mph83%30.07 "HgN/A
1:20 PM68 °FLight rain. Partly sunny.5 mph88%30.04 "HgN/A
12:50 PM68 °FLight rain. Partly sunny.7 mph88%30.04 "HgN/A
12:20 PM70 °FLight rain. Partly sunny.9 mph78%30.04 "HgN/A
11:50 AM70 °FLight rain. Scattered clouds.15 mph73%30.04 "HgN/A
11:20 AM77 °FScattered clouds.14 mph51%30.01 "HgN/A
10:50 AM79 °FPassing clouds.7 mph48%30.01 "HgN/A
10:20 AM77 °FPassing clouds.5 mph54%30.01 "HgN/A
9:50 AM73 °FSunny.9 mph61%29.98 "Hg10 mi
9:20 AM72 °FSunny.14 mph65%29.95 "Hg10 mi
8:50 AM72 °FSunny.7 mph61%29.92 "Hg10 mi
8:20 AM70 °FSunny.2 mph64%29.92 "Hg10 mi
7:50 AM68 °FSunny.2 mph69%29.92 "Hg10 mi
7:50 PM
Mon, Aug 3
90 °FSunny.1 mph29%29.95 "Hg10 mi
7:20 PM93 °FSunny.3 mph28%29.95 "Hg10 mi
6:50 PM90 °FSunny.2 mph29%29.95 "Hg10 mi
6:20 PM91 °FSunny.2 mph26%29.95 "Hg10 mi
5:50 PM91 °FPassing clouds.5 mph28%29.95 "HgN/A
5:20 PM90 °FSunny.3 mph27%29.98 "Hg10 mi
4:50 PM91 °FPassing clouds.5 mph28%29.98 "HgN/A
4:20 PM91 °FSunny.2 mph30%29.98 "Hg10 mi
Weather by CustomWeather, © 2015

See weather overviewHow to use our weather pages